Theta_e
310 310 310 310 310 308 308 309 311 312 313 314 313 312 314 317 320 321 323 323 325 329 330 327 324 324 325 324 325 325 323 323 327 333 333 326 320 323 329 334 336 334 332 327 319 317 317 317 319 320 321 323 324 325 326 326 322 320 327 334 334 335 334 329 323 320 323 324 321 320 321 323 323 323 323 324 323 324 324 323 323 324 328 330 329 329 329 332
310 310 310 310 310 309 309 309 310 312 313 314 313 312 313 316 319 320 322 323 324 327 329 328 324 324 325 324 325 327 326 327 329 332 329 320 320 324 329 333 335 334 330 327 321 317 317 317 319 320 322 323 325 326 326 327 324 323 327 329 332 336 331 323 319 316 318 320 320 320 321 322 323 322 322 324 322 324 327 326 326 325 326 328 327 327 328 329
310 310 310 310 310 310 310 310 310 311 312 313 313 313 313 315 318 320 321 322 323 326 329 327 324 324 325 324 326 327 329 331 332 331 323 319 322 323 328 332 335 335 331 328 323 318 317 317 319 321 322 324 326 326 326 327 326 325 325 327 331 330 322 316 317 316 317 319 318 319 320 321 322 322 322 323 321 323 328 328 328 327 325 326 326 326 327 327
310 310 310 310 310 310 311 311 310 311 312 313 314 314 314 315 318 320 321 322 323 326 329 328 324 324 325 325 327 328 330 332 331 326 318 319 323 322 327 332 335 336 332 328 324 318 316 317 319 321 322 324 326 327 327 326 328 326 325 331 331 322 317 316 316 316 317 318 318 318 319 320 321 321 321 321 322 322 323 324 325 325 324 325 328 328 327 327
309 310 310 310 310 311 311 311 311 311 312 313 314 315 314 315 317 319 321 322 324 327 329 328 325 324 326 326 327 329 330 331 329 322 316 319 321 322 326 331 335 335 331 327 323 317 315 316 319 321 322 324 326 329 329 326 327 327 325 327 324 317 317 317 315 316 316 316 317 316 317 319 319 321 321 320 324 324 321 322 322 322 322 324 326 327 328 327
309 309 310 310 310 311 311 311 311 311 311 313 314 315 316 316 316 319 320 321 324 327 329 328 325 324 326 327 327 329 329 329 328 321 315 318 320 323 325 330 335 335 330 325 320 316 316 317 320 322 324 325 327 330 331 327 326 329 328 324 323 320 317 317 316 317 317 316 317 316 317 318 317 319 320 319 322 323 320 321 321 321 323 323 324 326 327 326
309 309 309 309 309 310 312 311 311 312 312 313 314 314 316 317 316 318 320 321 322 326 329 328 325 323 326 328 327 329 328 327 326 322 316 317 320 322 325 329 334 335 331 324 319 317 317 319 321 322 325 326 327 328 330 328 325 329 330 325 325 324 319 318 317 317 317 317 317 316 316 316 316 318 317 317 319 320 320 320 319 320 322 324 325 325 325 324
309 309 310 309 309 310 311 312 311 312 312 313 314 314 316 318 318 317 318 320 322 324 328 328 326 323 325 329 327 326 327 326 325 324 320 319 321 321 324 329 333 335 333 326 320 317 319 321 321 323 325 326 326 327 328 327 325 327 330 326 324 323 319 318 316 316 316 316 316 316 315 316 316 316 315 316 318 318 319 319 319 320 321 324 326 325 325 324
310 310 310 310 309 310 311 312 312 312 313 313 315 316 317 319 319 319 319 320 322 325 327 328 327 324 324 327 326 325 327 326 324 324 323 322 322 321 323 329 332 334 334 329 321 317 320 321 322 324 325 325 326 328 328 329 329 327 328 326 321 319 318 316 315 315 315 315 315 315 315 316 316 316 317 317 318 319 317 318 319 319 321 323 324 325 325 325
309 309 310 310 310 310 310 311 311 312 314 314 315 316 317 318 320 321 321 321 322 324 327 328 327 325 325 327 326 325 327 326 324 323 322 323 323 322 322 326 330 332 333 332 323 318 320 321 322 324 325 325 326 329 328 329 332 327 326 326 320 317 316 316 316 316 316 315 315 317 317 317 317 316 319 321 320 320 318 317 318 319 320 321 323 324 324 324
309 309 309 310 310 310 311 311 311 311 313 314 314 315 317 319 320 322 322 321 321 323 326 328 327 325 325 327 325 325 327 326 325 323 323 323 323 323 322 324 329 332 332 331 324 318 319 321 322 324 326 327 328 330 328 328 329 326 326 325 320 317 316 315 316 316 316 317 317 316 317 317 317 316 318 322 321 319 318 317 317 318 320 320 321 323 324 324
309 309 309 310 310 310 311 311 310 311 312 313 314 314 316 317 319 321 322 322 322 323 327 327 327 326 326 326 325 325 326 325 324 325 325 323 322 322 321 322 327 330 332 330 324 319 319 322 322 325 328 328 329 330 329 328 327 325 326 327 324 322 323 317 314 316 316 318 319 316 320 322 319 317 318 322 322 320 318 317 317 317 319 320 320 322 323 323
308 309 309 310 310 310 310 310 310 311 311 313 314 315 316 316 317 319 319 321 321 323 326 328 327 326 325 325 325 326 326 325 324 326 326 324 324 325 324 325 328 330 331 329 323 319 319 321 323 325 328 329 329 330 330 327 325 325 326 329 330 329 333 325 315 316 316 317 319 319 328 331 324 321 321 323 322 321 319 318 317 317 318 319 319 321 321 322
308 309 309 309 310 309 310 311 310 311 311 312 314 316 316 316 317 316 316 317 318 320 323 326 326 326 325 324 325 325 326 325 324 326 327 326 326 328 327 328 329 330 330 324 319 318 320 322 324 325 328 330 329 328 329 327 328 331 328 329 333 333 338 332 317 316 318 318 318 323 329 331 328 325 325 324 322 321 320 319 318 317 317 318 319 320 320 320
308 309 309 309 309 309 310 310 311 312 312 312 314 315 316 316 316 316 316 316 316 316 318 322 325 324 324 324 324 325 326 325 325 326 327 326 327 328 329 329 330 329 326 321 317 319 321 324 326 327 329 329 328 330 332 331 331 332 332 333 334 334 337 335 321 316 321 320 317 324 328 327 327 325 325 326 323 320 320 320 320 318 317 318 318 319 319 319
308 309 309 309 309 310 311 311 311 312 312 313 314 315 316 316 316 317 317 315 315 315 315 320 324 323 323 324 324 325 325 325 326 327 327 327 326 328 329 329 329 326 321 319 319 320 322 324 327 328 328 329 332 335 335 333 332 330 333 336 335 334 333 335 328 318 319 321 318 322 327 330 331 324 323 326 324 322 320 321 320 319 319 318 318 318 318 319
308 309 309 309 309 309 310 311 311 312 312 312 314 315 316 316 315 316 315 313 314 315 315 318 321 323 323 323 324 325 324 325 326 327 328 327 326 327 328 328 327 323 319 320 322 322 323 325 327 328 328 330 332 335 335 334 334 331 331 334 334 334 332 334 335 323 317 320 320 322 323 328 330 324 323 325 324 322 319 321 322 321 320 319 318 318 318 319
308 309 309 309 309 309 310 310 310 311 311 312 313 314 315 315 314 314 312 311 312 314 315 315 316 321 324 322 323 325 324 325 325 326 327 327 327 326 328 328 325 322 321 323 324 324 325 325 327 330 330 331 331 331 334 333 333 331 330 332 333 334 332 333 335 326 318 320 322 323 322 322 324 322 322 324 324 321 319 320 322 322 321 321 320 319 319 319
308 308 309 309 309 309 309 309 310 310 311 313 314 314 314 314 312 311 310 310 313 315 315 314 314 318 322 320 323 324 324 325 325 325 326 325 327 326 327 327 324 322 322 323 325 325 326 326 328 332 331 331 330 329 331 331 331 331 330 331 332 333 332 331 332 325 319 321 322 323 323 322 322 322 321 322 324 322 320 319 319 320 321 321 320 319 319 318
308 308 309 309 308 308 308 309 310 309 310 313 315 315 314 313 312 312 310 310 313 315 314 314 314 315 318 320 323 324 324 325 324 324 325 325 326 325 324 325 322 323 322 322 326 325 325 328 329 330 329 329 329 329 330 330 330 330 329 331 332 332 332 330 331 325 319 322 324 322 323 323 323 323 321 321 322 321 320 319 317 317 318 319 320 319 319 319
308 308 309 309 308 308 308 309 310 309 309 312 314 313 312 312 313 313 312 310 310 312 312 314 314 314 315 317 322 325 324 324 324 323 324 325 325 324 323 323 322 323 322 321 325 326 326 327 327 326 327 327 328 329 329 329 330 331 330 331 331 331 331 328 327 324 319 324 328 324 323 323 322 322 320 319 319 319 319 319 318 318 318 319 320 320 321 322
308 308 309 309 309 308 308 309 310 310 310 312 312 312 311 310 312 313 312 310 309 309 310 312 312 312 313 313 315 323 325 323 323 323 323 323 323 323 322 321 322 322 322 323 325 327 327 326 325 324 326 327 328 329 328 329 331 332 330 330 331 329 329 328 324 321 319 325 330 326 324 324 322 321 319 317 318 319 320 320 320 321 320 320 321 322 322 322
308 308 309 309 308 308 309 310 311 310 311 312 312 311 310 309 311 312 311 310 309 309 309 310 311 311 312 312 312 319 324 323 322 321 322 322 321 322 321 320 321 321 322 324 325 328 328 326 324 323 325 328 329 328 328 329 330 332 330 329 331 330 329 330 325 321 320 323 327 325 323 323 320 321 320 317 318 319 321 322 321 322 321 321 322 322 323 322
308 308 309 308 308 309 309 310 312 312 312 312 311 310 309 309 310 311 310 310 310 309 309 310 310 311 311 311 312 318 323 323 322 322 321 322 321 322 322 320 321 322 323 324 324 326 326 325 323 324 326 328 329 329 329 330 330 330 329 328 329 330 329 330 326 322 321 321 323 322 325 327 323 323 322 319 318 317 318 320 321 322 322 322 322 321 322 322
308 309 309 309 308 308 308 310 313 313 312 311 311 310 308 309 310 310 310 311 310 310 310 309 310 310 311 311 312 315 321 322 322 322 321 321 322 322 322 321 321 322 323 324 324 325 325 324 323 325 327 327 328 329 328 329 330 330 329 326 327 328 328 327 324 323 324 327 326 322 328 336 330 327 325 323 323 320 317 316 317 319 320 321 321 321 322 322
309 309 309 309 308 308 309 311 312 311 311 312 311 309 308 309 310 310 310 311 311 311 311 311 310 311 311 311 312 314 320 322 322 322 321 321 322 322 323 322 322 322 322 323 324 325 324 324 324 325 326 327 328 328 328 328 330 330 329 326 325 327 329 327 323 327 330 331 327 322 328 336 329 326 327 326 325 324 320 316 315 317 319 320 320 321 322 322
309 309 309 309 309 309 311 311 311 311 311 311 310 309 308 308 309 309 310 311 311 312 311 310 311 313 313 313 313 315 320 322 322 322 321 321 322 322 324 324 323 323 322 323 326 326 324 324 326 326 326 328 328 328 327 327 329 330 329 327 325 327 330 327 325 331 332 328 326 324 326 330 328 327 328 325 325 326 324 322 319 316 318 320 321 321 322 322
308 308 308 309 308 309 310 309 310 311 310 310 310 309 309 308 308 309 310 311 312 312 311 310 312 314 314 315 315 315 318 321 323 323 321 321 322 323 324 324 323 323 322 324 327 326 324 324 325 325 327 327 327 328 326 326 328 328 327 328 326 328 330 328 328 331 328 327 330 327 324 328 331 330 327 324 324 325 323 323 321 318 318 320 321 322 322 321
308 308 308 309 309 309 309 309 310 310 310 310 310 310 309 308 307 309 310 312 312 311 311 312 314 315 315 317 316 315 316 319 320 321 321 321 322 322 324 324 323 324 323 323 326 326 324 324 324 325 327 327 327 327 326 327 327 324 325 327 326 326 325 326 331 332 329 329 331 328 323 327 332 329 325 324 324 322 320 320 319 316 317 319 320 321 322 322
308 308 308 308 309 309 309 309 309 309 309 310 311 311 309 307 308 308 309 311 313 312 312 313 315 316 317 317 316 316 316 316 317 319 320 321 322 321 322 323 323 324 325 325 326 324 322 323 323 324 325 325 325 325 324 325 324 322 324 325 325 326 326 329 331 331 331 330 329 329 326 326 330 330 327 325 325 326 323 323 324 318 316 319 319 320 320 321
307 307 308 308 309 309 309 309 309 309 309 310 310 310 308 308 309 308 308 311 314 314 313 313 315 317 316 315 315 316 315 315 316 318 320 320 320 321 322 324 324 325 326 326 325 322 322 324 324 324 323 322 323 322 322 322 321 323 326 325 326 328 329 331 329 329 333 329 325 327 326 324 328 332 331 326 324 326 324 326 330 323 317 319 321 321 321 321
308 308 308 308 309 308 308 309 309 309 309 310 310 308 307 308 309 308 309 312 315 314 313 314 316 317 316 314 315 315 314 314 315 316 319 320 321 321 324 326 325 326 327 325 324 323 324 324 323 322 321 320 323 323 322 322 321 323 325 325 327 328 329 330 328 328 330 326 320 322 324 324 325 327 326 322 320 321 318 318 322 320 317 319 322 322 322 322
308 307 307 308 308 308 308 308 309 309 309 310 310 307 307 309 309 308 309 312 313 313 313 315 316 316 315 315 315 314 313 313 315 316 317 320 321 321 324 325 325 327 327 324 324 324 324 324 322 322 321 320 322 323 324 324 322 323 324 324 327 328 329 330 327 326 328 325 319 318 322 324 324 325 324 321 319 318 316 315 317 317 317 319 319 319 320 321
307 307 308 307 308 308 307 308 308 308 309 309 308 307 308 309 309 309 310 310 311 313 315 316 316 317 315 315 315 314 314 313 314 315 315 317 319 319 322 323 323 326 326 323 323 324 326 325 323 323 322 321 321 322 324 324 322 323 324 325 327 327 328 328 326 326 326 323 318 316 322 327 327 327 323 317 315 315 316 317 317 318 318 317 317 317 318 319
307 307 307 307 308 307 307 308 308 308 309 307 306 307 308 308 309 310 310 310 311 313 315 315 316 317 315 315 315 314 314 314 314 314 314 314 316 317 319 322 322 324 324 323 322 322 326 327 324 322 321 321 322 321 321 323 324 324 325 326 327 326 327 327 324 325 324 323 321 319 323 327 325 323 319 314 314 313 313 315 315 317 318 316 316 316 317 318
307 307 307 307 307 307 307 308 308 308 308 306 306 307 307 307 310 310 309 310 312 314 316 316 316 317 316 315 315 314 314 315 314 315 314 314 314 314 317 320 321 322 324 325 323 323 325 326 322 321 320 321 321 320 320 323 325 324 324 326 324 322 327 327 321 320 321 323 323 320 323 327 324 320 319 319 321 318 314 314 313 314 317 316 316 317 317 318
307 306 306 307 306 306 307 307 308 308 307 306 307 307 306 306 308 309 308 310 313 315 316 316 315 316 317 316 315 315 314 315 314 315 315 315 315 313 313 317 320 321 323 324 323 325 326 325 321 321 322 321 319 320 320 319 321 324 325 324 322 323 328 330 324 323 323 324 325 321 321 326 325 322 322 322 322 321 319 318 313 311 314 314 315 317 317 318
306 306 306 306 306 307 307 307 308 308 306 305 307 308 308 306 306 307 307 309 313 315 315 316 315 315 316 316 316 315 314 315 315 315 315 315 317 315 312 314 317 319 321 321 322 324 325 324 321 321 322 320 318 320 322 319 317 321 323 322 324 327 327 328 327 326 324 324 327 323 320 322 324 324 324 320 321 322 319 320 318 313 312 312 315 317 317 318
305 306 306 306 306 307 307 307 307 307 305 305 307 308 308 308 305 305 306 308 312 315 315 314 314 314 315 315 316 315 314 315 314 315 316 316 317 316 314 315 316 318 320 320 322 324 323 324 323 321 321 321 321 322 323 322 319 319 320 320 325 327 325 326 325 324 324 324 326 326 323 325 323 322 324 320 320 321 318 320 322 315 311 313 316 317 317 317
305 305 305 306 306 306 307 307 306 305 305 306 306 306 306 306 305 304 305 307 309 312 314 314 314 315 315 315 316 315 314 315 315 315 316 316 316 316 316 317 317 318 319 320 322 322 321 324 325 321 320 322 323 322 322 323 322 321 322 322 324 323 323 326 324 323 325 327 329 327 323 327 327 321 320 318 318 320 319 321 321 313 311 315 316 316 317 316
305 305 305 305 306 306 306 306 304 304 305 306 306 305 305 305 306 305 305 306 307 308 311 313 314 314 315 314 314 314 314 316 316 315 315 316 316 317 317 317 318 319 319 320 322 322 321 324 323 320 321 323 323 322 321 322 322 322 322 322 322 322 322 325 324 324 325 324 328 327 320 327 332 321 316 317 318 319 317 318 317 312 312 315 316 316 316 314
304 305 305 305 306 306 305 305 303 303 305 306 304 305 305 305 306 305 304 305 306 307 308 311 312 312 314 314 313 313 313 315 316 315 315 316 316 317 317 317 318 319 319 319 320 319 319 322 323 321 322 322 320 320 321 322 322 322 324 323 322 322 322 323 323 325 325 321 324 326 321 324 329 322 318 318 317 315 313 313 314 313 314 316 316 316 315 313
303 304 304 304 305 305 304 304 303 303 305 304 303 303 303 304 305 305 306 307 306 308 309 311 311 310 312 313 313 312 312 314 315 315 316 316 316 316 316 317 318 320 320 321 321 319 317 320 322 321 321 319 318 319 320 321 321 322 325 324 322 321 321 322 324 324 324 322 322 323 321 322 324 324 317 312 312 312 312 313 314 313 314 315 316 316 314 312
303 303 304 304 304 304 303 303 303 303 303 302 303 303 302 302 303 305 308 308 307 309 310 310 310 309 310 312 312 312 313 314 314 314 315 316 316 315 315 316 318 320 321 321 320 319 318 319 321 322 322 320 320 321 320 321 322 322 323 322 321 321 321 323 324 322 323 324 323 322 322 321 321 321 315 311 314 315 311 312 315 314 314 315 316 315 313 311
303 303 303 303 303 302 302 302 303 303 302 302 304 303 302 302 302 303 306 307 307 309 309 308 308 308 311 312 312 312 313 314 314 312 312 313 315 314 314 316 318 319 320 319 319 319 318 318 320 322 324 323 323 325 324 322 322 322 322 321 321 321 321 321 322 321 322 324 323 321 321 319 318 318 316 315 319 320 314 311 313 314 315 316 316 314 312 311
303 303 302 301 301 301 302 301 301 302 302 303 303 303 303 303 302 302 303 304 305 306 306 307 307 308 310 311 312 314 313 313 313 312 311 312 314 314 313 315 317 318 318 318 318 318 316 315 317 319 322 322 322 324 324 323 322 322 322 321 321 321 320 320 321 321 321 322 322 321 320 321 321 320 320 318 319 323 319 311 311 314 314 315 315 313 312 311
303 303 302 301 301 301 301 301 301 301 301 302 302 302 302 303 302 301 302 303 303 304 306 307 308 309 310 310 312 313 313 313 313 312 311 311 313 313 311 313 316 317 317 316 316 317 316 316 316 316 318 319 320 321 322 322 322 322 322 321 321 321 321 321 322 321 321 321 321 320 319 321 321 319 321 322 321 323 319 311 311 314 315 315 315 313 311 311
301 302 302 302 302 302 302 301 300 301 301 301 302 302 302 303 303 302 303 303 302 303 306 307 308 310 311 311 311 311 312 313 313 312 313 312 312 312 311 313 315 316 315 315 315 316 316 317 317 315 316 317 317 319 320 321 321 322 322 322 321 321 321 321 321 320 321 321 321 320 320 320 319 317 320 321 319 318 315 313 313 315 316 316 314 312 311 311
300 301 302 302 302 302 301 300 300 301 302 301 302 301 302 302 302 302 303 303 302 302 304 306 308 311 312 312 311 310 311 313 312 313 314 313 312 312 313 315 316 314 314 316 315 314 316 317 315 314 316 317 317 318 318 320 321 321 321 321 321 320 320 321 321 320 320 320 320 320 320 319 318 318 318 316 314 313 313 314 314 314 315 316 314 312 311 311
301 301 301 301 301 301 300 300 300 301 301 301 302 301 301 302 302 301 302 303 303 303 303 304 306 308 311 311 310 310 311 312 312 314 314 314 314 314 314 316 316 313 313 316 316 314 316 317 314 313 317 318 317 317 317 318 320 321 321 321 320 320 320 320 321 321 321 321 320 320 321 320 318 317 316 313 313 313 313 312 312 313 315 315 312 311 311 312
300 301 301 300 300 300 300 300 300 301 301 301 302 301 300 301 301 301 301 301 302 303 303 303 304 304 307 310 310 310 310 311 312 312 312 313 314 313 313 314 316 316 314 314 315 315 316 315 313 314 318 319 317 317 317 317 317 319 320 321 320 320 320 320 320 321 321 321 321 321 321 320 318 318 316 313 313 313 311 310 311 313 315 314 312 312 313 313
300 301 301 300 301 300 300 300 300 301 301 300 300 301 300 300 300 300 301 301 300 302 302 302 303 303 304 307 309 308 308 308 309 310 310 312 312 311 311 310 312 316 316 315 315 314 314 314 313 314 318 319 318 316 316 316 317 318 319 320 319 320 320 320 320 320 320 320 321 321 321 319 319 321 318 316 315 314 311 310 313 314 314 313 312 314 314 313
Wind_Speed
31 32 33 35 35 37 39 38 38 38 37 36 36 37 37 38 39 36 35 39 39 36 36 38 37 34 33 32 32 32 33 34 33 33 35 36 32 30 27 26 26 23 22 22 20 19 19 18 16 12 9 7 6 7 5 5 6 6 3 3 2 3 3 4 4 5 3 2 4 6 7 6 5 6 10 8 9 12 8 7 7 7 7 6 7 8 14 22
31 32 33 35 35 36 38 38 40 38 37 36 36 37 37 38 39 38 35 37 41 37 36 40 37 35 34 33 32 31 31 33 33 36 39 35 32 33 29 26 27 26 22 23 23 21 22 21 18 13 9 7 6 8 8 6 7 5 2 2 4 4 4 4 5 5 3 3 4 5 6 5 7 10 12 7 6 10 7 5 7 7 9 9 10 12 16 22
31 32 34 35 35 36 37 38 40 39 37 36 36 36 37 38 38 38 36 36 40 37 36 39 38 35 34 33 33 30 30 30 31 39 41 36 34 34 29 26 27 27 25 24 23 22 23 21 18 14 10 8 8 9 8 7 7 5 3 2 5 5 3 3 6 6 5 7 6 5 4 4 8 12 11 8 7 8 7 8 8 9 12 12 13 16 18 22
31 32 34 35 34 36 37 38 39 39 38 37 36 36 37 37 38 38 35 36 39 37 36 40 38 35 34 35 33 32 31 24 30 44 42 37 36 33 31 29 27 27 26 23 23 23 22 20 17 15 12 9 9 8 8 9 7 4 5 4 5 6 3 4 7 6 7 8 8 7 4 4 6 9 10 10 8 4 11 16 13 12 15 16 17 20 20 22
31 32 33 34 34 35 37 38 38 39 38 38 37 36 37 37 38 39 35 36 39 38 39 40 38 36 36 36 35 35 30 13 24 46 43 38 37 33 32 30 28 27 26 23 23 24 22 21 18 14 11 8 8 6 7 12 9 3 5 5 6 7 3 5 7 7 8 7 8 7 5 5 5 7 10 11 8 6 13 17 16 15 15 15 17 20 22 23
31 31 33 34 35 35 36 38 38 38 39 39 38 36 36 37 39 40 37 36 40 40 38 40 39 38 38 38 38 39 33 10 8 33 44 40 36 35 33 31 30 28 28 25 23 24 23 23 19 14 11 7 8 6 5 13 12 4 4 6 9 10 4 7 9 7 7 6 7 7 5 7 5 6 9 11 10 8 8 9 11 15 15 15 16 20 23 24
30 31 32 34 35 35 35 37 37 38 39 38 38 37 36 37 38 40 39 36 41 40 35 40 41 39 39 39 40 39 40 23 2 16 39 41 36 35 34 32 32 29 30 29 25 25 25 25 21 17 12 5 7 8 7 12 12 6 3 6 10 11 9 10 11 9 8 7 7 7 6 7 7 5 6 10 14 11 9 6 5 10 15 18 19 21 22 21
30 31 32 33 34 34 35 36 37 38 37 37 36 35 35 36 37 39 39 37 40 38 34 40 40 41 41 39 40 32 37 35 9 7 24 37 39 35 35 35 33 31 32 32 28 27 27 26 24 19 10 6 8 9 9 8 6 6 5 5 7 8 11 12 12 11 10 9 8 7 7 9 9 6 6 11 14 12 12 12 9 10 15 21 22 22 22 22
30 31 31 32 33 34 35 35 36 36 35 36 35 33 34 34 35 36 38 38 40 39 38 42 41 43 41 40 39 24 34 42 17 8 15 28 39 38 37 37 36 33 33 34 30 29 29 26 27 21 11 10 10 8 13 9 3 10 11 7 6 7 11 13 13 12 10 9 8 7 7 11 10 6 8 15 17 14 13 13 13 13 16 22 23 23 23 23
30 30 31 32 33 33 34 34 34 34 33 34 34 33 33 33 34 34 37 39 41 42 39 42 44 44 42 42 34 17 34 45 23 16 17 23 36 39 39 38 37 35 33 35 33 32 32 28 27 22 12 11 10 7 13 10 5 12 15 9 6 8 12 13 13 12 9 8 9 8 7 11 10 5 8 13 13 14 17 17 15 15 18 21 22 24 24 23
30 30 32 31 32 33 34 34 33 32 31 33 34 33 32 32 32 33 36 37 42 43 36 40 45 44 45 44 33 18 32 43 30 23 18 22 36 40 41 39 38 37 34 36 35 34 34 29 27 22 9 7 10 7 9 11 8 11 12 7 3 5 9 11 11 11 8 5 10 10 6 10 8 5 11 14 10 11 16 19 19 18 19 20 22 24 25 25
29 30 31 31 32 32 33 33 31 30 30 32 33 32 33 32 30 33 34 33 40 43 35 40 45 46 47 43 39 32 30 38 37 26 17 21 32 37 40 39 37 37 35 37 36 35 34 29 26 23 10 7 9 3 6 12 10 10 9 4 2 1 3 10 11 10 10 4 7 6 4 9 7 10 20 23 18 14 13 16 20 23 22 21 22 24 25 25
29 30 29 30 31 31 31 32 31 30 30 33 33 32 32 32 31 32 30 27 33 38 37 42 48 50 45 35 40 43 31 32 37 32 21 19 28 36 38 38 35 34 34 36 36 36 35 29 27 25 13 9 9 4 4 10 11 9 5 3 1 3 4 10 11 9 9 5 6 7 3 7 7 15 26 27 25 23 18 17 20 23 25 24 23 25 25 25
29 30 29 29 29 30 32 32 32 32 31 33 33 32 31 30 30 30 30 28 26 29 30 38 50 52 43 30 33 42 36 29 32 38 32 22 29 37 36 36 33 32 32 33 34 34 33 26 25 24 13 10 10 6 4 4 6 5 2 1 2 2 4 7 9 10 6 6 11 10 4 8 7 13 19 20 24 26 24 22 21 23 25 26 25 26 26 25
29 30 29 29 29 29 31 32 33 33 31 33 34 33 31 29 27 27 31 32 27 25 19 25 44 46 32 23 27 36 37 31 30 38 40 31 31 37 37 36 33 31 32 31 32 32 30 25 23 19 11 10 10 6 3 2 1 2 3 2 2 4 4 5 5 14 9 5 12 11 3 8 9 13 14 14 17 21 26 27 25 25 26 27 28 28 27 26
29 29 29 29 29 29 29 29 31 32 31 32 33 32 30 29 28 27 27 28 26 25 18 19 40 44 22 13 24 32 34 35 35 36 41 37 31 36 39 36 33 31 31 29 28 29 28 24 20 15 10 9 7 5 4 1 2 2 4 4 3 5 3 4 4 14 15 5 7 9 4 4 6 8 8 10 15 17 22 27 27 28 28 28 29 29 28 27
29 29 29 28 29 30 30 29 29 30 31 33 32 30 29 28 28 27 24 24 23 20 19 18 30 35 20 14 25 34 36 36 37 37 39 39 33 35 39 37 34 33 29 26 24 26 26 22 16 9 7 5 4 6 4 6 6 3 2 2 3 5 4 2 4 8 13 7 5 8 6 8 8 9 9 5 9 13 20 24 26 29 30 30 31 30 30 30
29 28 28 28 30 31 30 29 28 29 31 32 30 27 27 27 25 24 21 22 21 16 16 17 18 14 11 19 28 36 42 39 39 41 40 39 35 34 39 40 36 33 28 22 20 23 21 15 10 4 3 4 5 8 9 8 7 5 5 4 5 5 5 6 4 4 9 8 7 8 8 13 12 14 17 13 9 11 18 23 24 27 30 31 32 32 32 32
29 28 27 28 30 32 31 29 28 29 30 28 27 26 25 25 22 21 20 19 19 11 9 14 15 8 5 15 30 36 43 42 39 41 42 42 38 36 38 39 39 36 26 15 14 20 16 8 5 5 7 10 10 12 10 5 8 9 8 7 7 5 5 5 5 5 9 6 7 9 10 13 13 13 18 23 19 16 18 21 24 26 29 31 32 32 32 32
30 28 28 28 30 33 32 31 29 28 28 27 29 27 23 20 13 11 17 22 24 14 6 10 12 12 11 8 24 32 38 40 40 41 43 44 42 38 36 36 35 29 21 13 10 15 15 8 8 12 14 14 13 12 9 5 8 10 8 7 7 5 5 5 4 6 9 6 7 11 11 12 15 12 13 22 21 17 19 21 24 27 29 31 32 32 32 32
31 29 29 29 29 32 33 33 31 29 29 29 32 29 22 21 11 8 16 18 26 24 14 16 14 18 17 6 15 33 38 35 41 46 43 46 46 35 30 32 24 14 15 17 12 11 12 10 15 18 14 13 12 10 9 6 7 9 8 6 6 5 5 5 4 5 7 6 5 7 9 12 13 11 14 18 14 15 21 22 25 29 30 31 32 33 33 33
31 30 30 30 30 32 32 34 33 31 31 31 34 29 24 29 15 7 16 10 17 26 22 24 24 26 26 18 12 29 39 28 33 44 43 47 46 31 24 24 17 12 14 16 12 8 9 13 19 17 10 10 10 9 10 8 6 7 7 5 6 5 2 4 3 3 4 6 4 3 5 10 12 10 13 17 16 20 26 26 28 31 32 34 35 35 35 34
32 30 30 31 31 32 31 33 32 32 35 33 35 29 25 31 15 4 14 7 4 19 22 27 30 32 32 25 20 16 32 25 25 37 43 45 43 35 27 18 15 15 14 14 13 11 11 16 19 16 11 11 10 10 12 8 6 6 6 7 6 5 4 4 3 2 3 3 2 2 4 7 8 8 10 17 22 26 30 32 32 32 33 35 36 36 37 37
32 31 32 32 32 32 31 30 30 34 38 34 33 29 24 27 15 7 12 6 2 10 21 28 29 32 35 26 21 13 22 27 27 36 45 44 38 33 28 21 17 14 14 19 21 19 15 12 17 17 12 13 11 11 13 10 7 7 7 9 5 5 7 5 2 1 1 3 1 3 4 7 6 8 10 12 16 22 27 29 31 34 35 35 35 36 38 38
32 32 33 34 34 34 31 29 31 35 35 32 32 30 24 22 15 10 9 4 3 3 11 19 21 31 38 28 24 16 11 21 28 40 48 47 40 27 21 24 18 12 18 23 21 18 14 13 22 19 13 16 14 12 15 12 8 7 9 9 6 6 7 4 4 4 3 4 3 2 2 7 4 6 10 7 6 12 17 18 25 32 33 33 36 37 38 39
33 33 34 35 34 33 31 29 32 33 30 30 33 31 25 21 16 11 7 3 2 3 6 11 12 17 25 23 22 15 5 9 24 43 49 48 44 29 17 18 13 13 21 19 12 8 6 15 21 17 15 18 15 12 15 14 9 7 8 10 8 6 7 6 7 5 3 4 4 2 4 6 6 5 8 6 5 9 11 12 19 27 29 32 36 38 39 40
34 34 34 35 35 36 35 31 31 31 30 30 33 33 26 21 18 10 4 2 2 6 8 11 11 8 10 13 16 12 4 7 22 38 47 44 41 29 16 14 12 14 17 11 7 5 8 16 17 16 17 15 14 13 15 16 11 6 6 12 11 7 7 8 7 4 2 3 4 2 3 4 7 6 6 4 5 9 11 11 14 21 28 31 33 35 37 40
35 35 34 35 37 38 37 34 33 33 31 30 31 31 23 19 19 10 3 0 2 7 6 9 11 10 9 7 12 12 5 8 16 24 43 45 35 22 11 14 16 15 19 15 11 11 16 20 21 22 18 13 14 13 13 16 10 3 6 9 7 6 6 6 6 3 2 1 3 3 3 3 6 7 4 2 5 11 13 12 12 19 27 30 31 31 31 34
37 37 36 37 37 37 33 32 35 33 30 30 28 25 21 21 19 7 2 2 2 3 4 10 11 10 11 7 10 11 7 1 4 11 36 40 31 19 8 16 18 14 19 17 10 9 13 22 26 22 15 13 13 10 14 16 8 4 9 8 5 4 4 4 4 4 3 1 6 6 4 3 5 7 4 1 4 11 13 10 11 19 27 31 32 33 31 29
38 38 37 38 38 36 29 28 32 29 28 31 28 25 26 22 13 4 1 2 2 2 5 9 10 13 16 8 5 8 6 2 6 4 21 23 24 19 11 17 16 11 14 10 4 1 5 18 22 15 14 12 9 10 14 14 9 10 10 8 6 4 4 3 2 5 2 4 6 8 8 4 4 6 5 4 6 8 7 7 8 14 22 26 29 31 32 30
38 39 37 39 39 36 30 29 31 29 28 31 29 29 26 13 3 2 4 1 3 3 5 6 8 13 17 10 5 7 6 2 2 1 7 8 12 13 10 11 9 7 10 7 4 0 5 13 11 10 17 16 12 7 8 10 13 11 6 6 6 2 3 3 3 3 3 6 4 6 8 6 6 7 4 6 7 5 6 6 7 10 16 19 18 21 24 26
38 38 37 38 37 34 31 32 33 30 27 29 31 30 19 4 1 3 2 2 2 3 4 5 9 11 15 13 8 7 5 3 3 3 3 3 4 7 10 10 8 8 7 7 6 2 5 10 8 8 16 21 15 8 5 6 8 7 6 8 7 2 2 3 2 2 5 5 2 4 5 4 9 8 9 13 13 9 10 11 13 13 17 15 10 11 14 17
38 38 38 38 37 34 31 30 32 30 28 31 32 22 8 1 4 5 2 0 1 2 3 6 9 11 13 12 8 8 5 2 5 3 4 2 2 5 9 10 11 7 5 11 9 5 4 5 8 7 8 17 17 11 8 7 9 10 10 11 8 5 6 6 4 1 3 4 2 3 3 3 5 5 12 18 18 15 14 18 20 16 14 10 4 4 5 7
39 40 40 37 36 34 30 30 32 30 31 35 27 12 3 3 4 2 1 3 1 2 1 4 9 10 12 11 8 10 7 2 7 4 2 2 3 4 5 6 9 2 5 11 6 8 10 4 10 12 8 17 18 13 13 11 11 12 8 7 7 5 6 6 5 3 3 2 2 1 2 4 3 3 9 13 15 17 15 19 20 15 12 8 5 5 5 5
40 41 39 33 32 31 28 32 33 31 35 33 16 5 6 5 3 2 2 3 2 2 2 4 9 10 9 8 7 11 9 3 7 6 2 2 2 3 3 4 7 2 7 11 2 6 9 2 8 9 7 19 18 9 10 11 8 6 4 6 5 5 5 3 4 5 4 2 1 2 4 4 4 7 11 11 11 14 16 19 18 19 17 12 11 11 9 9
42 41 37 32 32 30 29 33 32 32 37 26 7 5 7 3 3 4 3 3 3 3 4 4 7 7 6 4 5 10 8 3 7 7 4 4 2 3 4 3 5 4 6 10 4 5 6 2 8 7 6 17 17 10 12 14 9 4 5 8 4 4 7 5 2 2 4 2 2 3 5 5 3 7 11 11 11 9 10 13 15 19 20 17 17 16 14 14
43 40 34 31 31 29 30 34 32 34 35 19 5 7 4 0 3 3 1 4 3 3 5 3 4 5 4 4 4 9 8 5 7 7 3 4 3 4 4 5 4 5 4 4 2 4 5 3 4 6 7 12 17 18 13 8 7 6 8 8 3 3 3 4 2 2 3 2 3 3 6 4 2 5 5 6 13 13 8 7 9 13 16 18 21 20 19 18
41 38 32 29 30 30 32 33 34 36 26 10 6 7 2 0 3 1 2 2 3 4 4 2 2 2 3 4 4 8 10 6 7 7 4 4 3 7 9 3 6 8 9 4 1 3 4 4 1 2 4 4 9 14 8 0 1 5 8 9 6 2 2 3 3 3 3 3 4 4 4 4 6 6 2 4 12 15 12 7 6 8 13 17 20 21 21 20
40 33 25 27 29 29 31 32 35 33 17 5 7 6 1 2 2 3 4 2 3 4 2 2 2 1 1 4 4 7 10 8 8 6 4 4 4 7 14 9 4 9 13 5 1 3 2 5 2 1 1 3 5 7 8 4 2 4 5 7 4 2 5 5 3 3 4 4 4 3 3 4 7 7 6 9 12 13 13 10 7 10 16 20 21 22 22 20
39 23 15 28 32 27 29 30 28 22 8 4 5 2 1 2 1 2 5 4 3 3 1 2 2 1 0 1 1 4 7 7 7 5 3 5 4 3 10 13 6 8 13 7 1 2 2 3 4 1 2 3 6 7 11 12 6 4 7 8 5 2 2 3 2 3 4 3 3 3 4 6 6 5 12 15 14 12 13 12 9 11 18 22 23 23 20 20
34 14 10 30 31 26 31 24 14 8 2 2 2 1 1 1 1 2 5 6 5 4 3 3 2 2 2 0 1 2 4 6 6 5 3 5 5 2 7 15 12 9 9 8 4 1 1 1 5 5 3 6 10 8 8 14 13 10 9 10 9 6 4 4 3 1 2 2 4 3 6 8 5 5 10 13 11 9 12 12 9 12 20 25 26 24 21 20
25 8 14 30 29 29 29 13 3 3 3 2 3 3 2 2 2 3 4 5 5 5 4 3 2 2 2 2 1 3 2 3 5 6 4 6 9 5 8 18 19 15 11 7 7 2 2 2 5 6 6 6 6 1 1 6 9 5 4 7 8 6 6 7 7 4 4 3 2 3 4 7 4 5 8 9 9 11 15 14 12 17 23 26 27 26 23 21
18 12 21 31 30 32 23 5 2 4 1 2 5 5 3 2 2 2 2 3 3 3 3 2 1 1 2 2 3 2 2 1 2 4 4 5 7 5 8 19 21 15 10 7 7 2 3 1 5 5 1 2 2 4 5 2 5 4 2 4 6 7 8 7 5 4 4 4 3 3 6 7 4 3 6 8 9 10 12 16 19 21 21 24 26 26 24 24
22 23 26 30 31 30 16 2 4 6 1 3 5 3 3 4 2 2 2 1 2 2 1 1 2 1 2 2 3 3 3 1 2 1 1 2 3 3 7 17 19 12 9 10 8 6 2 2 4 5 3 1 1 0 2 2 2 5 4 6 10 13 9 4 2 3 3 7 8 6 8 7 4 3 2 4 6 7 9 17 22 20 19 23 26 27 26 27
23 18 18 23 27 21 7 2 6 6 4 5 5 4 4 3 1 4 4 1 2 3 2 0 1 2 3 3 4 2 2 2 1 2 3 2 2 1 3 13 18 12 11 18 19 12 4 3 3 6 7 8 8 9 9 6 6 7 8 12 15 17 15 9 4 4 5 8 10 9 10 4 3 4 3 2 2 5 7 12 17 20 21 24 27 28 29 30
16 7 7 12 14 9 2 5 10 6 5 7 4 3 5 3 1 3 4 2 2 3 3 1 1 3 3 3 3 1 1 2 2 1 1 2 3 2 4 6 16 15 11 18 22 13 3 2 5 6 7 6 6 8 10 12 11 10 12 18 18 18 19 13 6 8 10 7 6 10 13 6 5 7 6 4 4 6 6 8 15 21 23 24 26 30 31 32
11 6 8 8 5 3 2 5 9 5 4 8 5 3 6 4 1 1 1 1 1 2 2 1 2 2 1 2 2 1 1 2 2 2 1 2 3 4 6 6 9 14 9 10 13 9 3 3 7 9 11 5 4 4 5 14 16 16 17 19 17 15 15 12 11 14 11 5 4 14 15 14 16 12 7 7 6 5 6 8 16 21 23 24 26 29 32 34
8 8 13 13 7 4 4 6 10 7 5 6 3 3 7 5 3 2 1 1 2 3 2 1 2 4 4 4 3 1 0 2 3 3 2 2 2 2 3 5 6 9 8 5 5 5 3 4 7 7 10 8 5 6 3 12 16 19 21 22 21 18 18 18 20 20 13 8 13 21 18 17 19 13 10 11 10 8 10 14 17 19 21 23 25 28 33 35
10 11 12 13 8 6 9 11 11 8 6 6 3 4 8 8 8 5 2 2 2 1 2 1 2 5 6 6 4 2 3 3 3 4 3 3 4 1 1 3 4 5 8 6 3 4 4 3 5 7 7 10 6 5 3 6 12 15 18 20 21 22 24 24 24 24 18 14 18 21 16 16 18 14 12 14 15 15 14 14 14 15 18 23 26 30 34 38
16 16 14 11 6 9 15 13 11 8 5 6 3 2 6 9 11 7 3 6 4 2 4 6 7 6 6 6 6 5 6 6 5 5 4 4 5 4 3 3 1 0 4 4 2 4 5 2 5 7 5 10 11 8 6 5 9 14 18 17 17 20 21 22 22 21 16 15 20 21 16 16 18 13 9 11 16 17 12 12 14 16 21 25 27 30 36 41
23 24 26 18 6 6 12 8 6 6 4 5 4 3 5 9 12 8 4 7 10 6 7 10 10 4 4 4 6 8 10 10 8 7 8 7 4 1 1 2 2 2 3 3 2 4 4 2 3 5 4 8 10 12 12 8 7 10 15 17 17 17 18 19 20 20 18 18 22 20 16 17 15 6 7 10 14 14 12 16 20 22 26 29 30 35 41 44
24 25 30 23 7 5 10 4 4 5 4 6 7 5 5 7 7 8 3 5 8 9 12 12 8 3 3 3 9 15 16 16 14 10 8 8 6 5 5 7 6 3 4 3 1 1 3 3 3 4 5 6 7 12 14 9 5 8 11 16 20 20 21 20 19 21 20 17 17 16 17 16 7 5 7 9 11 12 16 23 27 29 31 33 35 40 43 43
Wind_Direction
239 239 237 237 234 233 235 236 234 233 233 232 230 230 231 231 231 230 229 225 221 223 223 220 218 216 216 217 219 221 218 216 215 215 219 219 215 216 215 213 213 215 212 203 194 190 192 192 191 191 186 183 198 198 182 188 171 142 121 116 185 201 199 206 191 197 189 225 236 197 175 151 148 156 144 129 143 144 145 174 169 183 187 178 197 192 183 181
239 239 237 236 235 233 233 235 234 233 232 231 230 229 230 230 231 230 230 227 222 223 223 217 215 214 214 214 216 219 218 217 216 218 221 218 217 217 212 210 211 211 209 204 197 191 194 194 188 190 193 192 195 189 185 188 186 176 120 147 212 202 212 212 180 199 196 178 196 184 179 171 174 167 154 145 148 146 137 158 172 183 182 181 194 188 183 182
238 238 238 237 236 234 233 233 234 234 232 230 228 228 229 229 230 230 230 228 222 223 223 216 213 214 213 212 212 215 216 216 216 221 221 216 218 218 211 209 209 209 209 206 200 194 198 196 186 188 195 199 199 188 186 183 193 209 148 172 238 206 204 204 173 188 190 170 159 161 183 182 177 172 167 168 164 166 173 176 181 193 193 189 189 186 184 185
239 238 238 237 235 233 233 232 232 233 232 228 226 226 227 227 229 229 228 226 221 220 222 216 210 211 211 210 210 210 209 212 221 222 217 214 217 216 211 208 206 207 208 205 201 198 202 199 191 191 195 200 200 192 192 188 189 197 169 190 225 186 174 187 165 164 172 161 153 156 162 162 171 182 182 165 154 208 214 203 210 217 206 193 186 188 188 189
240 238 237 237 235 233 233 232 232 231 231 228 224 223 224 226 227 228 227 224 218 217 221 218 210 208 210 208 207 207 200 204 232 225 217 213 216 214 210 207 204 203 203 203 200 199 203 201 196 196 199 200 188 184 206 200 187 178 203 218 201 173 164 199 176 155 165 156 151 153 161 173 174 192 191 172 169 229 224 221 232 231 220 207 196 193 193 195
239 238 236 236 235 234 233 232 232 231 230 228 225 223 222 224 225 226 227 224 217 215 218 216 211 208 209 208 207 205 197 196 251 225 218 212 213 214 208 206 204 200 199 201 199 199 201 198 198 197 193 194 183 180 207 201 193 192 234 233 213 200 190 195 189 179 180 167 164 172 186 184 179 209 208 201 211 216 208 224 237 232 232 224 209 199 197 200
238 237 236 235 234 234 232 230 230 229 229 227 225 224 223 222 222 224 226 226 220 215 212 211 210 208 210 209 206 202 201 210 236 215 217 211 210 213 208 205 204 200 198 199 200 199 199 196 198 196 184 181 192 195 202 197 193 193 229 232 225 223 218 203 194 194 195 191 192 190 193 190 189 212 218 223 229 216 208 237 235 222 225 218 209 205 207 208
237 236 235 233 233 234 231 229 228 227 228 227 224 223 225 222 220 222 224 226 221 215 210 210 209 206 211 208 198 197 205 209 185 161 207 205 207 211 207 205 202 201 199 199 200 197 198 198 198 193 181 185 190 191 190 186 193 199 219 226 216 224 218 205 197 195 196 198 199 195 205 212 210 224 237 234 234 225 230 244 229 210 212 212 211 212 213 213
237 235 233 230 231 232 231 228 226 225 224 223 221 219 223 222 218 219 219 223 219 213 212 211 210 206 211 210 195 198 214 206 182 150 189 194 201 207 206 204 201 199 198 200 199 196 200 202 198 192 188 193 184 185 185 177 217 210 214 217 197 206 199 193 198 198 197 199 198 203 228 230 224 244 256 242 238 234 237 235 220 215 211 208 213 216 216 217
236 234 232 230 230 229 228 226 224 223 220 219 219 218 222 221 218 217 216 219 216 214 212 207 209 205 208 209 194 205 221 208 192 189 195 189 194 201 205 204 202 198 197 200 199 199 201 202 199 194 195 195 186 192 185 180 212 207 210 215 197 195 190 191 203 208 207 212 214 215 240 246 235 234 246 240 233 231 231 226 218 218 216 212 214 217 219 222
235 233 232 230 228 226 223 222 221 220 219 219 219 218 221 218 213 214 215 217 215 214 210 204 206 204 205 207 197 206 219 210 200 191 188 189 192 198 202 203 203 198 196 199 199 199 201 203 199 191 194 196 185 196 197 199 206 195 198 209 216 191 193 203 209 214 209 225 230 220 258 266 245 227 236 232 224 225 227 225 224 223 222 220 219 219 221 225
234 232 231 228 225 223 220 218 216 217 218 219 218 217 219 219 212 211 212 215 216 212 207 205 208 205 203 205 206 210 214 212 206 192 181 188 194 199 201 203 203 199 196 197 199 199 200 205 199 190 186 172 169 174 216 203 183 171 176 184 279 341 238 220 211 213 201 212 227 202 300 275 236 234 240 237 227 227 231 225 223 225 226 223 223 222 223 228
231 229 228 226 222 220 219 216 214 215 216 216 216 213 215 220 218 213 209 211 214 211 208 208 208 205 201 201 210 211 211 213 206 197 194 188 192 197 200 202 201 199 198 199 199 198 201 204 201 193 180 163 167 147 184 179 158 154 157 143 181 356 300 225 207 203 195 208 192 159 283 264 237 243 245 243 232 227 236 231 221 223 226 224 224 225 227 230
227 226 224 223 221 219 220 218 213 213 213 214 215 210 208 212 216 215 214 215 213 209 209 208 204 201 198 201 212 211 210 212 202 199 200 189 189 193 196 199 198 197 199 203 203 200 201 200 196 193 179 170 171 142 122 145 151 146 122 104 150 199 276 237 196 173 178 221 181 155 253 257 259 255 249 250 235 226 232 234 227 224 224 224 225 226 229 231
225 224 221 222 222 218 221 219 214 211 210 213 213 209 207 206 207 209 212 215 216 216 214 212 205 196 192 202 209 208 207 203 195 198 202 197 188 188 191 194 193 195 198 203 206 202 199 193 190 188 173 161 158 140 88 29 359 137 167 208 169 199 265 297 205 177 184 218 173 158 249 265 270 263 257 256 238 225 228 234 233 228 225 225 227 227 229 234
223 222 221 222 219 216 217 217 214 211 210 212 210 207 207 205 202 203 212 214 219 226 224 213 202 194 194 204 200 199 194 191 191 193 200 202 193 186 187 188 187 193 197 201 204 201 197 191 187 184 165 154 151 131 99 70 264 237 194 187 184 205 234 319 261 201 196 172 172 191 239 269 278 289 286 255 239 229 225 233 234 231 229 227 227 228 231 237
221 221 220 218 214 212 213 212 211 212 211 210 208 205 202 203 204 207 217 219 219 220 213 209 201 196 199 192 190 193 189 187 189 189 196 202 201 190 184 181 182 189 192 192 194 193 191 187 184 184 165 157 145 130 156 207 207 212 186 165 213 219 195 218 288 227 194 169 195 216 236 245 254 293 315 286 243 233 225 231 233 230 231 230 229 231 235 239
219 218 217 212 209 208 208 207 206 209 207 201 203 204 200 203 206 207 211 213 214 211 209 223 225 214 201 186 186 191 192 189 187 188 191 195 201 198 187 181 178 179 178 175 180 183 182 180 175 168 161 173 165 168 197 208 181 174 173 182 229 229 201 206 247 218 175 181 206 203 232 248 254 270 273 269 261 245 233 234 236 232 232 233 234 235 239 240
217 215 212 209 207 206 204 200 201 204 198 192 197 199 199 199 198 204 208 205 202 198 209 218 223 257 290 198 188 190 192 188 185 186 185 187 192 194 187 180 176 170 163 161 180 182 171 156 159 178 195 195 188 190 198 171 153 173 180 194 212 216 224 220 237 211 170 179 213 202 222 243 250 257 258 258 258 259 254 245 241 238 235 235 236 238 240 239
213 212 210 207 207 205 200 196 198 201 194 189 191 188 186 183 178 197 201 205 203 191 179 179 199 265 293 192 176 180 185 184 184 183 184 186 182 178 175 170 168 166 165 168 179 183 173 168 197 205 202 194 188 189 189 148 148 170 181 204 208 199 232 233 256 239 180 172 225 217 223 240 245 251 258 261 262 263 262 254 247 243 238 237 237 239 240 240
210 209 207 205 204 202 199 196 196 195 190 191 189 183 178 172 169 190 182 202 215 212 217 193 202 264 271 244 176 173 173 176 184 184 184 184 177 171 169 164 160 169 181 166 145 163 178 199 214 209 199 184 182 178 180 175 159 175 187 203 212 201 232 229 238 255 188 187 246 224 230 250 252 256 261 265 266 259 254 249 247 245 243 242 241 242 243 245
208 207 203 201 201 199 198 197 195 190 189 193 189 185 187 181 177 201 182 185 219 219 226 210 219 256 256 267 255 182 170 169 180 183 181 178 175 172 170 167 167 176 176 155 135 150 185 219 215 200 177 162 169 171 181 190 175 188 192 191 216 202 244 270 259 279 180 194 251 213 226 252 255 257 256 254 253 255 256 252 251 248 244 243 243 244 245 246
206 204 201 201 199 197 196 197 196 189 190 195 192 190 195 190 179 171 181 155 210 215 219 215 224 248 252 268 288 205 174 171 174 177 178 175 175 175 170 171 179 172 163 162 165 171 196 219 203 178 160 157 165 174 181 194 194 198 189 191 216 182 176 248 257 257 191 194 223 189 271 271 257 262 258 247 246 253 258 257 257 253 247 246 246 247 247 246
203 200 200 199 197 195 193 195 193 188 193 195 193 194 193 192 181 131 157 129 26 210 217 220 223 240 250 262 281 246 180 176 175 174 177 176 174 175 173 176 178 167 171 180 179 187 204 199 173 167 166 164 171 180 183 195 206 208 200 196 202 175 190 217 188 146 296 295 328 74 321 286 248 253 258 251 248 251 254 254 256 253 250 251 250 248 248 247
199 197 198 195 193 193 190 192 189 187 193 191 190 194 191 188 171 125 128 106 356 206 213 221 223 240 246 250 266 266 187 178 181 177 177 178 174 170 174 181 179 172 181 184 182 197 206 161 158 171 172 171 181 190 191 195 199 216 215 198 187 183 191 184 145 108 55 293 292 75 290 283 273 253 257 264 263 259 258 253 253 254 252 250 249 247 247 247
195 195 194 193 191 189 186 190 191 189 189 187 189 192 192 186 160 127 115 71 307 180 163 183 198 239 241 240 252 256 220 183 182 179 179 181 178 170 169 178 182 185 181 180 184 202 196 158 163 173 172 178 190 196 195 189 191 219 203 182 189 185 167 156 152 137 142 233 290 80 191 268 300 260 249 260 272 269 269 260 254 254 252 248 248 249 248 247
193 193 192 190 187 184 182 187 193 190 183 183 187 189 193 188 168 149 120 11 276 161 147 167 171 195 217 226 225 222 242 147 163 177 179 180 182 178 178 174 176 187 172 166 194 186 164 165 167 172 175 184 195 199 194 183 190 214 161 166 185 171 157 164 153 148 182 222 318 18 153 253 284 260 245 266 292 282 274 269 261 254 250 248 248 249 249 247
191 191 189 186 184 185 185 186 189 187 184 182 183 187 190 180 174 169 125 289 199 137 146 177 179 186 189 201 196 206 261 145 148 176 178 178 182 179 189 185 178 177 167 171 195 178 168 173 172 174 178 189 197 194 178 175 192 206 127 146 169 148 144 149 132 128 53 43 276 268 154 212 270 271 270 305 292 277 268 263 261 257 253 252 251 250 250 248
189 189 186 183 181 184 187 189 187 184 184 181 175 178 174 163 166 161 101 197 132 101 160 170 173 176 161 153 181 203 263 172 92 169 174 178 184 178 189 196 184 170 174 187 196 175 176 182 177 172 179 194 189 171 163 175 193 150 120 101 86 76 82 99 109 109 58 330 230 211 177 208 269 263 254 287 260 262 266 259 253 256 255 255 254 252 251 249
187 187 186 181 179 179 183 189 187 181 178 177 174 167 157 155 160 131 143 212 108 129 158 159 171 161 150 146 180 199 235 295 14 151 170 174 181 176 173 190 186 165 177 190 189 149 160 174 174 175 189 183 149 144 164 170 149 120 110 92 83 49 41 53 58 86 85 267 226 189 176 181 275 263 225 213 220 224 244 263 266 261 258 259 258 255 251 249
184 185 183 180 179 177 175 178 181 179 173 176 177 165 150 146 159 135 166 146 78 151 150 149 166 154 155 166 177 188 208 245 3 169 175 162 169 168 154 177 186 164 174 173 168 157 112 153 169 186 185 157 117 136 160 147 134 120 113 122 118 56 23 25 13 72 201 248 237 186 167 168 234 258 241 232 234 205 203 248 270 272 276 274 266 259 252 247
181 181 180 179 178 178 176 174 175 172 169 173 172 160 145 121 250 203 192 65 68 194 181 160 167 162 167 174 175 172 171 194 198 226 239 168 165 176 168 175 173 162 177 168 161 164 139 164 172 173 174 158 143 150 139 142 151 135 140 149 142 150 175 192 213 183 218 246 265 174 150 191 236 255 263 257 257 239 217 231 246 267 287 287 269 261 253 244
177 176 177 178 177 178 179 175 172 167 166 168 161 150 133 130 198 203 228 149 120 188 177 159 167 167 165 171 179 166 154 187 183 216 276 200 186 206 196 191 178 169 169 159 152 149 165 204 182 155 164 165 161 161 161 173 180 171 167 169 168 164 176 195 194 208 243 253 262 159 147 260 268 262 249 249 255 250 235 238 248 264 280 276 243 233 232 220
173 172 173 173 172 176 177 175 172 168 166 162 151 138 148 198 186 143 172 218 181 121 141 155 159 162 169 180 180 162 162 195 171 173 284 208 209 217 223 210 189 156 117 151 162 166 168 207 187 174 168 170 174 181 176 165 175 184 171 159 168 165 179 192 181 189 213 231 259 190 180 212 196 252 249 247 265 271 258 248 248 255 256 242 217 206 195 195
169 170 170 167 169 173 176 176 172 170 167 158 142 141 181 195 202 145 175 219 202 136 134 142 151 160 179 184 173 172 180 193 177 178 190 185 210 222 238 208 185 155 139 157 180 170 170 203 185 181 171 170 175 178 156 142 163 194 148 150 187 173 151 143 168 175 150 133 227 209 231 219 199 284 285 268 271 271 261 254 244 242 246 235 221 220 218 222
167 168 166 166 170 172 176 178 173 171 167 154 132 192 187 196 196 188 188 163 157 155 121 121 154 167 182 169 168 185 183 150 165 179 192 181 193 239 255 247 196 206 172 163 155 167 176 186 175 171 163 173 172 153 154 159 162 174 169 177 188 138 125 114 155 112 93 166 232 194 240 292 316 286 283 273 274 265 244 249 245 239 240 228 219 224 229 233
166 165 162 165 169 171 175 177 174 173 168 154 160 194 179 200 186 199 191 134 137 131 114 132 176 167 166 159 174 179 170 155 164 170 178 168 183 201 226 301 267 242 241 182 176 191 160 128 180 173 163 179 168 154 162 173 150 148 180 178 127 78 92 98 132 41 66 210 262 224 231 271 275 258 279 269 267 267 243 230 247 244 231 219 219 228 237 241
159 158 158 162 169 170 173 178 177 172 165 153 189 190 111 326 208 290 353 122 110 93 105 160 175 145 158 160 173 167 162 166 165 165 169 168 195 176 167 257 283 259 272 289 301 243 152 107 297 202 152 167 152 148 154 319 100 148 168 165 144 152 197 156 162 179 168 214 268 275 252 238 215 225 274 235 237 254 260 240 235 238 223 215 217 225 234 239
152 150 152 161 168 167 171 179 176 166 156 159 196 198 174 204 227 7 14 22 77 90 125 160 111 37 151 153 155 158 166 176 164 167 181 170 195 173 163 178 239 253 263 284 17 268 170 128 166 269 150 153 142 158 178 185 22 54 127 160 162 162 185 182 165 156 166 204 246 290 309 244 222 201 204 227 225 231 247 245 228 219 212 209 212 219 227 231
149 143 148 165 166 164 169 174 168 157 154 188 180 182 191 193 245 31 29 33 57 56 108 157 129 94 92 163 134 143 169 179 165 175 200 169 176 187 170 170 174 226 245 257 251 286 336 132 161 131 18 165 175 190 186 179 165 135 161 180 182 134 125 161 167 123 130 162 205 258 277 253 245 193 194 219 225 215 225 235 234 217 205 206 211 217 224 228
146 132 153 167 163 161 163 160 155 145 128 156 121 58 171 106 100 96 43 51 62 40 64 125 144 122 105 137 5 56 166 180 174 176 193 178 183 237 191 180 172 181 217 253 262 248 334 176 158 152 164 184 192 201 193 187 182 176 184 184 176 165 127 147 207 190 129 168 177 199 261 261 246 196 199 215 221 217 221 225 231 221 206 206 214 218 224 227
141 122 161 165 162 162 158 144 109 118 105 157 142 108 98 46 84 97 48 61 66 28 35 65 100 109 108 143 88 47 122 177 191 183 193 202 201 218 195 185 182 172 172 218 240 217 49 93 147 165 186 189 190 187 79 184 176 154 173 180 169 164 149 167 205 203 177 201 148 141 263 273 244 194 202 212 213 220 222 217 225 228 214 208 214 219 222 220
126 119 153 162 161 162 156 121 91 128 78 167 128 97 80 68 74 69 50 69 55 16 21 28 30 97 90 114 112 108 124 133 215 196 210 218 213 226 199 187 185 173 162 196 221 192 50 91 163 161 139 32 10 13 26 67 147 135 149 161 161 182 185 183 191 169 175 202 168 172 248 261 259 223 220 230 228 226 222 215 220 228 221 212 213 216 216 209
118 123 148 163 165 163 160 159 161 148 113 105 105 97 78 62 61 80 78 81 65 73 85 14 344 25 61 65 80 129 157 124 360 320 275 238 223 235 211 196 187 174 175 185 178 162 167 208 176 158 140 88 65 128 16 4 177 184 197 177 181 193 182 146 116 123 197 208 177 193 243 245 265 280 264 258 239 221 221 220 220 223 221 214 211 212 211 201
121 124 145 163 166 165 161 165 156 139 128 127 126 150 123 65 57 107 99 117 134 129 138 211 355 56 76 62 44 54 136 127 38 350 349 329 294 290 236 206 193 190 198 181 163 155 180 239 193 174 177 176 184 194 188 184 186 190 194 187 190 192 181 174 176 168 216 209 175 200 233 233 351 311 286 316 260 226 231 225 221 223 223 217 211 209 205 198
132 124 132 154 166 166 108 127 147 140 147 147 136 156 148 137 168 117 103 113 131 134 138 138 69 54 63 73 61 43 150 128 124 59 15 314 297 329 334 235 204 206 204 174 160 149 119 265 233 235 227 193 200 215 183 167 177 188 194 193 194 194 189 186 185 194 213 201 175 224 237 243 284 263 251 274 246 228 232 212 211 218 221 219 213 208 204 199
136 138 150 150 149 153 85 116 145 148 160 152 144 172 156 136 95 53 91 140 105 109 113 115 121 110 120 124 114 252 207 135 162 176 175 228 289 315 330 313 237 217 203 168 161 145 100 207 211 238 256 264 347 314 169 160 179 188 191 196 197 192 188 189 206 215 207 166 218 240 234 238 247 234 222 248 243 231 235 214 211 215 217 218 216 210 206 203
135 147 161 158 144 166 175 161 160 154 146 138 121 157 152 140 137 129 153 281 15 61 85 45 152 153 169 167 156 216 126 122 193 199 166 187 255 302 294 293 262 216 191 183 179 141 127 208 190 204 246 264 336 331 207 175 188 195 194 194 190 185 186 195 213 219 198 177 228 234 223 231 243 230 208 221 215 207 217 214 213 217 218 221 220 213 209 207
124 124 148 157 150 149 140 141 147 141 145 147 127 161 165 169 175 171 152 99 22 316 154 152 214 178 169 170 157 171 185 179 216 212 166 175 198 196 216 257 263 203 176 179 193 155 161 203 170 165 235 254 258 298 287 202 203 208 206 200 190 188 192 198 211 218 208 204 232 241 237 242 245 232 215 215 209 208 218 220 220 223 223 225 224 218 213 211
143 144 150 143 118 122 125 130 145 146 154 158 157 203 177 176 186 189 152 137 156 234 182 199 225 192 153 165 173 197 209 198 204 206 173 163 188 195 198 211 247 161 190 193 176 183 199 194 139 146 214 247 237 246 274 258 224 214 212 208 197 194 199 205 213 219 213 217 236 244 247 250 250 237 206 201 207 214 228 236 232 230 228 228 227 222 218 216
157 160 156 142 96 124 137 130 140 140 144 167 177 190 180 193 195 181 172 179 174 168 184 210 223 193 133 162 190 218 220 207 207 206 186 181 191 211 230 224 171 137 204 233 188 172 195 187 116 137 202 232 219 218 233 256 269 241 219 207 198 197 204 209 214 216 207 210 227 236 240 248 253 228 160 180 200 209 224 228 228 231 231 229 227 224 223 221
153 154 154 144 107 141 153 119 114 147 171 193 191 179 176 201 187 155 172 218 189 184 195 205 212 190 144 186 222 232 230 225 230 230 208 210 234 267 272 273 275 237 180 192 204 177 176 171 143 154 204 229 201 196 212 227 256 253 225 205 198 199 205 209 215 220 213 206 215 224 230 237 232 133 161 194 195 201 215 219 222 229 232 229 227 227 226 225